When you browse on this site, cookies collect data to enhance your experience and personalize the content and advertising you see.
Visit our Privacy Policy to learn more. By continuing to use the site, you agree to this use of cookies and data.
  • En España
  • Lista de países
  • Para 7 días
  • Temperatura del agua
  • Mapa Satelital
  • El tiempo en el mapa
  • Informadores
  • user-avatar
    Iniciar sesión

    Tiempo cada hora Gluhovo

    Hoy, 22 Mayo, Miércoles

    Tiempo Temperatura Precipitaciones Viento Presión Humedad
    00:00 +14°C° 0 mm 2 mps 741 mmHg 93%
    01:00 +14°C° 0 mm 2 mps 741 mmHg 93%
    02:00 +14°C° 0 mm 1 mps 740 mmHg 93%
    03:00 +14°C° 0 mm 2 mps 740 mmHg 93%
    04:00 +14°C° 0 mm 2 mps 740 mmHg 93%
    05:00 +14°C° 0 mm 2 mps 740 mmHg 92%
    06:00 +16°C° 0 mm 2 mps 739 mmHg 88%
    07:00 +17°C° 0 mm 2 mps 739 mmHg 84%
    08:00 +18°C° 0 mm 2 mps 739 mmHg 78%
    09:00 +19°C° 0 mm 2 mps 739 mmHg 74%
    10:00 +20°C° 0 mm 2 mps 739 mmHg 71%
    11:00 +21°C° 0 mm 2 mps 739 mmHg 67%
    12:00 +23°C° 0.3 mm 2 mps 738 mmHg 65%
    13:00 +24°C° 0.3 mm 2 mps 738 mmHg 63%
    14:00 +24°C° 0.3 mm 2 mps 738 mmHg 61%
    15:00 +24°C° 0.3 mm 2 mps 738 mmHg 62%
    16:00 +24°C° 0.3 mm 2 mps 737 mmHg 63%
    17:00 +24°C° 0.3 mm 2 mps 737 mmHg 65%
    18:00 +22°C° 0 mm 1 mps 737 mmHg 71%
    19:00 +20°C° 0 mm 1 mps 737 mmHg 76%
    20:00 +18°C° 0 mm 1 mps 737 mmHg 82%
    21:00 +18°C° 0 mm 1 mps 737 mmHg 83%
    22:00 +16°C° 0 mm 1 mps 736 mmHg 84%
    23:00 +16°C° 0 mm 1 mps 736 mmHg 85%

    Mañana, 23 Mayo, Jueves

    Tiempo Temperatura Precipitaciones Viento Presión Humedad
    00:00 +15°C° 0 mm 1 mps 736 mmHg 85%
    01:00 +15°C° 0 mm 1 mps 736 mmHg 86%
    02:00 +15°C° 0 mm 1 mps 736 mmHg 86%
    03:00 +15°C° 0 mm 2 mps 736 mmHg 86%
    04:00 +15°C° 0 mm 2 mps 736 mmHg 85%
    05:00 +15°C° 0 mm 2 mps 736 mmHg 84%
    06:00 +16°C° 0 mm 2 mps 736 mmHg 80%
    07:00 +18°C° 0 mm 2 mps 736 mmHg 76%
    08:00 +20°C° 0 mm 2 mps 736 mmHg 72%
    09:00 +21°C° 0 mm 3 mps 736 mmHg 68%
    10:00 +22°C° 0 mm 3 mps 736 mmHg 64%
    11:00 +25°C° 0 mm 4 mps 736 mmHg 60%
    12:00 +25°C° 0.1 mm 4 mps 736 mmHg 60%
    13:00 +25°C° 0.1 mm 4 mps 736 mmHg 59%
    14:00 +25°C° 0.1 mm 5 mps 736 mmHg 59%
    15:00 +25°C° 0.4 mm 4 mps 735 mmHg 63%
    16:00 +24°C° 0.4 mm 3 mps 735 mmHg 68%
    17:00 +24°C° 0.4 mm 3 mps 735 mmHg 73%
    18:00 +21°C° 0.1 mm 3 mps 735 mmHg 77%
    19:00 +20°C° 0.1 mm 2 mps 735 mmHg 82%
    20:00 +18°C° 0.1 mm 2 mps 735 mmHg 87%
    21:00 +18°C° 0.5 mm 2 mps 736 mmHg 88%
    22:00 +17°C° 0.5 mm 2 mps 736 mmHg 89%
    23:00 +16°C° 0.5 mm 2 mps 736 mmHg 91%

    Pasado mañana, 24 Mayo, Viernes

    Tiempo Temperatura Precipitaciones Viento Presión Humedad
    00:00 +16°C° 0 mm 2 mps 736 mmHg 92%
    01:00 +15°C° 0 mm 1 mps 736 mmHg 92%
    02:00 +15°C° 0 mm 1 mps 736 mmHg 93%
    03:00 +15°C° 0 mm 2 mps 736 mmHg 94%
    04:00 +15°C° 0 mm 2 mps 737 mmHg 95%
    05:00 +15°C° 0 mm 2 mps 737 mmHg 96%
    06:00 +16°C° 0 mm 3 mps 737 mmHg 93%
    07:00 +17°C° 0 mm 3 mps 737 mmHg 90%
    08:00 +18°C° 0 mm 3 mps 738 mmHg 87%
    09:00 +18°C° 0 mm 3 mps 738 mmHg 86%
    10:00 +19°C° 0 mm 3 mps 738 mmHg 84%
    11:00 +19°C° 0 mm 3 mps 737 mmHg 83%
    12:00 +19°C° 0 mm 3 mps 737 mmHg 82%
    13:00 +20°C° 0 mm 3 mps 737 mmHg 80%
    14:00 +20°C° 0 mm 3 mps 737 mmHg 79%
    15:00 +20°C° 0.1 mm 3 mps 737 mmHg 79%
    16:00 +20°C° 0.1 mm 3 mps 737 mmHg 78%
    17:00 +21°C° 0.1 mm 4 mps 737 mmHg 78%
    18:00 +19°C° 0.2 mm 3 mps 737 mmHg 82%
    19:00 +18°C° 0.2 mm 3 mps 737 mmHg 87%
    20:00 +17°C° 0.2 mm 3 mps 737 mmHg 92%
    21:00 +17°C° 0.6 mm 3 mps 737 mmHg 93%
    22:00 +16°C° 0.6 mm 3 mps 737 mmHg 95%
    23:00 +15°C° 0.6 mm 4 mps 736 mmHg 96%

    25 Mayo, Sábado

    Tiempo Temperatura Precipitaciones Viento Presión Humedad
    00:00 +14°C° 0.6 mm 3 mps 736 mmHg 96%
    01:00 +14°C° 0.6 mm 3 mps 736 mmHg 97%
    02:00 +13°C° 0.6 mm 3 mps 736 mmHg 98%
    03:00 +14°C° 0.4 mm 3 mps 735 mmHg 97%
    04:00 +15°C° 0.4 mm 2 mps 735 mmHg 97%
    05:00 +15°C° 0.4 mm 2 mps 735 mmHg 97%
    06:00 +16°C° 0.1 mm 2 mps 735 mmHg 94%
    07:00 +17°C° 0.1 mm 2 mps 735 mmHg 91%
    08:00 +18°C° 0.1 mm 2 mps 735 mmHg 88%
    09:00 +20°C° 1 mm 1 mps 735 mmHg 82%
    10:00 +21°C° 1 mm 1 mps 735 mmHg 77%
    11:00 +22°C° 1 mm 1 mps 734 mmHg 72%
    12:00 +22°C° 1.6 mm 1 mps 734 mmHg 75%
    13:00 +21°C° 1.6 mm 1 mps 734 mmHg 79%
    14:00 +21°C° 1.6 mm 1 mps 734 mmHg 82%
    15:00 +20°C° 0.4 mm 1 mps 733 mmHg 83%
    16:00 +19°C° 0.4 mm 2 mps 733 mmHg 83%
    17:00 +19°C° 0.4 mm 2 mps 733 mmHg 84%
    18:00 +18°C° 0.1 mm 2 mps 733 mmHg 87%
    19:00 +17°C° 0.1 mm 2 mps 733 mmHg 90%
    20:00 +16°C° 0.1 mm 2 mps 733 mmHg 93%
    21:00 +15°C° 0 mm 2 mps 733 mmHg 92%
    22:00 +13°C° 0 mm 3 mps 733 mmHg 92%
    23:00 +13°C° 0 mm 3 mps 733 mmHg 91%

    26 Mayo, Domingo

    Tiempo Temperatura Precipitaciones Viento Presión Humedad
    00:00 +12°C° 0 mm 3 mps 734 mmHg 92%
    01:00 +11°C° 0 mm 3 mps 734 mmHg 94%
    02:00 +10°C° 0 mm 3 mps 734 mmHg 95%
    03:00 +10°C° 0 mm 3 mps 734 mmHg 95%
    04:00 +10°C° 0 mm 3 mps 734 mmHg 95%
    05:00 +10°C° 0 mm 3 mps 735 mmHg 95%
    06:00 +11°C° 0 mm 3 mps 735 mmHg 90%
    07:00 +12°C° 0 mm 3 mps 735 mmHg 85%
    08:00 +13°C° 0 mm 3 mps 735 mmHg 80%
    09:00 +14°C° 0 mm 4 mps 735 mmHg 75%
    10:00 +15°C° 0 mm 4 mps 735 mmHg 69%
    11:00 +17°C° 0 mm 4 mps 735 mmHg 64%
    12:00 +18°C° 0 mm 4 mps 735 mmHg 63%
    13:00 +17°C° 0 mm 5 mps 735 mmHg 62%
    14:00 +19°C° 0 mm 5 mps 735 mmHg 61%
    15:00 +17°C° 0.1 mm 5 mps 735 mmHg 64%
    16:00 +17°C° 0.1 mm 5 mps 735 mmHg 66%
    17:00 +18°C° 0.1 mm 4 mps 734 mmHg 68%
    18:00 +16°C° 0 mm 3 mps 734 mmHg 76%
    19:00 +14°C° 0 mm 2 mps 734 mmHg 84%
    20:00 +12°C° 0 mm 1 mps 734 mmHg 92%
    21:00 +12°C° 0.1 mm 2 mps 734 mmHg 91%
    22:00 +11°C° 0.1 mm 3 mps 734 mmHg 91%
    23:00 +12°C° 0.1 mm 3 mps 734 mmHg 91%

    27 Mayo, Lunes

    Tiempo Temperatura Precipitaciones Viento Presión Humedad
    00:00 +11°C° 0.2 mm 3 mps 734 mmHg 92%
    01:00 +10°C° 0.2 mm 3 mps 733 mmHg 92%
    02:00 +10°C° 0.2 mm 4 mps 733 mmHg 93%
    03:00 +8°C° 0.1 mm 4 mps 733 mmHg 94%
    04:00 +8°C° 0.1 mm 4 mps 734 mmHg 94%
    05:00 +7°C° 0.1 mm 5 mps 734 mmHg 94%
    06:00 +8°C° 0 mm 5 mps 734 mmHg 88%
    07:00 +9°C° 0 mm 6 mps 735 mmHg 81%
    08:00 +9°C° 0 mm 7 mps 735 mmHg 75%
    09:00 +9°C° 0.2 mm 7 mps 735 mmHg 75%
    10:00 +9°C° 0.2 mm 7 mps 735 mmHg 75%
    11:00 +10°C° 0.2 mm 8 mps 736 mmHg 75%
    12:00 +10°C° 0 mm 7 mps 736 mmHg 74%
    13:00 +10°C° 0 mm 7 mps 736 mmHg 74%
    14:00 +11°C° 0 mm 7 mps 737 mmHg 74%
    15:00 +11°C° 0.1 mm 7 mps 737 mmHg 73%
    16:00 +12°C° 0.1 mm 7 mps 738 mmHg 72%
    17:00 +12°C° 0.1 mm 7 mps 738 mmHg 72%
    18:00 +11°C° 0 mm 6 mps 739 mmHg 76%
    19:00 +10°C° 0 mm 5 mps 739 mmHg 80%
    20:00 +10°C° 0 mm 4 mps 739 mmHg 84%
    21:00 +9°C° 0 mm 3 mps 740 mmHg 87%
    22:00 +8°C° 0 mm 3 mps 740 mmHg 90%
    23:00 +7°C° 0 mm 3 mps 740 mmHg 93%
    Mostrar más